Time,TemperatureF,DewpointF,PressureIn,WindDirection,WindDirectionDegrees,WindSpeedMPH,WindSpeedGustMPH,Humidity,HourlyPrecipIn,Conditions,Clouds,dailyrainin,SoftwareType,DateUTC
2013-07-31 00:02:00,68.0,64.0,30.08,SE,125,0.0,0.0,86,0.00,,,0.00,,2013-07-31 05:02:00,
2013-07-31 00:11:00,67.0,63.0,30.08,SE,126,0.0,0.0,87,0.00,,,0.00,,2013-07-31 05:11:00,
2013-07-31 00:32:00,67.0,63.0,30.08,SE,125,0.0,0.0,87,0.00,,,0.00,,2013-07-31 05:32:00,
2013-07-31 00:42:00,67.0,63.0,30.08,SE,125,0.0,0.0,86,0.00,,,0.00,,2013-07-31 05:42:00,
2013-07-31 01:02:00,67.0,62.0,30.07,ESE,105,0.0,0.0,85,0.00,,,0.00,,2013-07-31 06:02:00,
2013-07-31 01:32:00,67.0,62.0,30.07,ESE,111,0.0,0.0,85,0.00,,,0.00,,2013-07-31 06:32:00,
2013-07-31 01:43:00,67.0,63.0,30.07,ESE,111,0.0,0.0,86,0.00,,,0.00,,2013-07-31 06:43:00,
2013-07-31 01:53:00,67.0,63.0,30.07,ESE,111,0.0,0.0,87,0.00,,,0.00,,2013-07-31 06:53:00,
2013-07-31 02:02:00,66.0,62.0,30.07,ESE,111,0.0,0.0,87,0.00,,,0.00,,2013-07-31 07:02:00,
2013-07-31 02:12:00,66.0,62.0,30.06,ESE,111,0.0,0.0,88,0.00,,,0.00,,2013-07-31 07:12:00,
2013-07-31 02:32:00,65.0,61.0,30.06,ESE,111,0.0,0.0,88,0.00,,,0.00,,2013-07-31 07:32:00,
2013-07-31 02:43:00,65.0,61.0,30.06,ESE,111,0.0,0.0,88,0.00,,,0.00,,2013-07-31 07:43:00,
2013-07-31 02:52:00,65.0,61.0,30.06,ESE,111,0.0,0.0,88,0.00,,,0.00,,2013-07-31 07:52:00,
2013-07-31 03:02:00,65.0,62.0,30.06,ESE,111,0.0,0.0,89,0.00,,,0.00,,2013-07-31 08:02:00,
2013-07-31 03:12:00,65.0,62.0,30.06,ESE,111,0.0,0.0,89,0.00,,,0.00,,2013-07-31 08:12:00,
2013-07-31 03:22:00,65.0,62.0,30.06,ESE,111,0.0,0.0,89,0.00,,,0.00,,2013-07-31 08:22:00,
2013-07-31 03:32:00,65.0,62.0,30.06,ESE,111,0.0,0.0,89,0.00,,,0.00,,2013-07-31 08:32:00,
2013-07-31 03:42:00,65.0,62.0,30.05,ESE,111,0.0,0.0,90,0.00,,,0.00,,2013-07-31 08:42:00,
2013-07-31 04:02:00,65.0,62.0,30.05,ESE,111,0.0,0.0,90,0.00,,,0.00,,2013-07-31 09:02:00,
2013-07-31 04:12:00,64.0,61.0,30.05,ESE,111,0.0,0.0,90,0.00,,,0.00,,2013-07-31 09:12:00,
2013-07-31 04:32:00,64.0,61.0,30.05,ESE,111,0.0,0.0,90,0.00,,,0.00,,2013-07-31 09:32:00,
2013-07-31 04:43:00,64.0,61.0,30.06,ESE,111,0.0,0.0,90,0.00,,,0.00,,2013-07-31 09:43:00,
2013-07-31 05:02:00,64.0,61.0,30.06,ESE,111,0.0,0.0,90,0.00,,,0.00,,2013-07-31 10:02:00,
2013-07-31 05:12:00,65.0,62.0,30.08,ESE,112,0.0,0.0,90,0.00,,,0.00,,2013-07-31 10:12:00,
2013-07-31 05:22:00,65.0,62.0,30.08,SE,134,0.0,0.0,91,0.00,,,0.00,,2013-07-31 10:22:00,
2013-07-31 05:32:00,65.0,62.0,30.07,South,190,0.0,0.0,90,0.00,,,0.00,,2013-07-31 10:32:00,
2013-07-31 05:44:00,65.0,62.0,30.07,South,190,0.0,0.0,90,0.00,,,0.00,,2013-07-31 10:44:00,
2013-07-31 05:52:00,65.0,62.0,30.07,South,190,0.0,0.0,90,0.00,,,0.00,,2013-07-31 10:52:00,
2013-07-31 06:03:00,65.0,62.0,30.08,South,190,0.0,0.0,90,0.00,,,0.00,,2013-07-31 11:03:00,
2013-07-31 06:12:00,65.0,62.0,30.08,South,190,0.0,0.0,90,0.00,,,0.00,,2013-07-31 11:12:00,
2013-07-31 06:33:00,66.0,62.0,30.07,SSW,192,0.0,0.0,88,0.00,,,0.00,,2013-07-31 11:33:00,
2013-07-31 06:43:00,67.0,63.0,30.07,SSW,192,0.0,0.0,86,0.00,,,0.00,,2013-07-31 11:43:00,
2013-07-31 06:52:00,66.0,62.0,30.07,SSW,192,0.0,0.0,86,0.00,,,0.00,,2013-07-31 11:52:00,
2013-07-31 07:02:00,66.0,62.0,30.07,SSW,192,0.0,0.0,87,0.00,,,0.00,,2013-07-31 12:02:00,
2013-07-31 07:12:00,65.0,61.0,30.07,SSW,192,0.0,1.0,88,0.00,,,0.00,,2013-07-31 12:12:00,
2013-07-31 07:33:00,66.0,62.0,30.07,ENE,76,0.0,1.0,87,0.00,,,0.00,,2013-07-31 12:33:00,
2013-07-31 07:43:00,66.0,62.0,30.07,ENE,76,0.0,1.0,87,0.00,,,0.00,,2013-07-31 12:43:00,
2013-07-31 08:02:00,66.0,62.0,30.07,NE,40,0.0,0.0,87,0.00,,,0.00,,2013-07-31 13:02:00,
2013-07-31 08:12:00,67.0,63.0,30.07,NE,41,0.0,0.0,86,0.00,,,0.00,,2013-07-31 13:12:00,
2013-07-31 08:43:00,67.0,62.0,30.07,NNE,30,0.0,1.0,85,0.00,,,0.00,,2013-07-31 13:43:00,
2013-07-31 09:02:00,68.0,63.0,30.07,NNW,340,0.0,0.0,83,0.00,,,0.00,,2013-07-31 14:02:00,
2013-07-31 09:12:00,68.0,63.0,30.07,North,355,0.0,1.0,83,0.00,,,0.00,,2013-07-31 14:12:00,
2013-07-31 09:22:00,68.0,63.0,30.07,NE,55,0.0,1.0,83,0.00,,,0.00,,2013-07-31 14:22:00,
2013-07-31 09:34:00,68.0,62.0,30.07,WNW,283,0.0,1.0,82,0.00,,,0.00,,2013-07-31 14:34:00,
2013-07-31 09:43:00,68.0,62.0,30.06,WNW,286,0.0,3.0,81,0.00,,,0.00,,2013-07-31 14:43:00,
2013-07-31 09:53:00,68.0,62.0,30.06,West,266,0.0,2.0,82,0.00,,,0.00,,2013-07-31 14:53:00,
2013-07-31 10:02:00,68.0,62.0,30.06,WSW,258,0.0,1.0,82,0.00,,,0.00,,2013-07-31 15:02:00,
2013-07-31 10:12:00,68.0,62.0,30.07,NNW,333,0.0,1.0,82,0.00,,,0.00,,2013-07-31 15:12:00,
2013-07-31 10:33:00,70.0,65.0,30.06,NW,308,0.0,1.0,84,0.00,,,0.00,,2013-07-31 15:33:00,
2013-07-31 10:43:00,70.0,65.0,30.06,West,279,0.0,3.0,83,0.00,,,0.00,,2013-07-31 15:43:00,
2013-07-31 10:52:00,69.0,63.0,30.06,WNW,294,0.0,2.0,82,0.00,,,0.00,,2013-07-31 15:52:00,
2013-07-31 11:02:00,70.0,64.0,30.05,West,260,1.0,2.0,81,0.00,,,0.00,,2013-07-31 16:02:00,
2013-07-31 11:12:00,71.0,64.0,30.05,WNW,302,0.0,3.0,78,0.00,,,0.00,,2013-07-31 16:12:00,
2013-07-31 11:33:00,72.0,64.0,30.04,West,259,1.0,3.0,75,0.00,,,0.00,,2013-07-31 16:33:00,
2013-07-31 11:44:00,73.0,64.0,30.04,WNW,290,0.0,2.0,74,0.00,,,0.00,,2013-07-31 16:44:00,
2013-07-31 12:02:00,73.0,64.0,30.03,West,272,0.0,3.0,73,0.00,,,0.00,,2013-07-31 17:02:00,
2013-07-31 12:13:00,74.0,65.0,30.03,SW,236,0.0,2.0,73,0.00,,,0.00,,2013-07-31 17:13:00,
2013-07-31 12:33:00,74.0,64.0,30.04,WSW,256,0.0,3.0,72,0.00,,,0.00,,2013-07-31 17:33:00,
2013-07-31 12:43:00,73.0,63.0,30.04,West,275,1.0,3.0,72,0.00,,,0.00,,2013-07-31 17:43:00,
2013-07-31 12:53:00,73.0,63.0,30.03,WSW,252,1.0,3.0,72,0.00,,,0.00,,2013-07-31 17:53:00,
2013-07-31 13:02:00,73.0,64.0,30.03,West,259,0.0,3.0,73,0.00,,,0.00,,2013-07-31 18:02:00,
2013-07-31 13:12:00,72.0,62.0,30.03,WSW,250,0.0,2.0,72,0.00,,,0.00,,2013-07-31 18:12:00,
2013-07-31 13:32:00,72.0,63.0,30.03,North,355,0.0,5.0,74,0.00,,,0.00,,2013-07-31 18:32:00,
2013-07-31 13:52:00,72.0,63.0,30.03,WSW,253,0.0,2.0,74,0.00,,,0.00,,2013-07-31 18:52:00,
2013-07-31 14:03:00,72.0,63.0,30.03,WSW,246,0.0,2.0,74,0.00,,,0.00,,2013-07-31 19:03:00,
2013-07-31 14:12:00,72.0,63.0,30.03,SW,220,1.0,5.0,73,0.00,,,0.00,,2013-07-31 19:12:00,
2013-07-31 14:33:00,72.0,62.0,30.02,West,271,1.0,3.0,71,0.00,,,0.00,,2013-07-31 19:33:00,
2013-07-31 14:43:00,72.0,62.0,30.02,SW,233,1.0,3.0,71,0.00,,,0.00,,2013-07-31 19:43:00,
2013-07-31 15:03:00,75.0,62.0,30.02,West,260,1.0,3.0,64,0.00,,,0.00,,2013-07-31 20:03:00,
2013-07-31 15:12:00,75.0,62.0,30.02,SW,235,1.0,6.0,64,0.00,,,0.00,,2013-07-31 20:12:00,
2013-07-31 15:22:00,76.0,61.0,30.01,NE,34,0.0,3.0,59,0.00,,,0.00,,2013-07-31 20:22:00,
2013-07-31 15:32:00,77.0,61.0,30.01,SW,225,1.0,7.0,58,0.00,,,0.00,,2013-07-31 20:32:00,
2013-07-31 15:43:00,77.0,62.0,30.01,West,265,1.0,3.0,59,0.00,,,0.00,,2013-07-31 20:43:00,
2013-07-31 16:02:00,77.0,59.0,30.00,NW,315,1.0,3.0,54,0.00,,,0.00,,2013-07-31 21:02:00,
2013-07-31 16:12:00,77.0,58.0,29.99,SSW,203,1.0,3.0,52,0.00,,,0.00,,2013-07-31 21:12:00,
2013-07-31 16:32:00,77.0,55.0,29.98,West,264,1.0,3.0,47,0.00,,,0.00,,2013-07-31 21:32:00,
2013-07-31 16:43:00,77.0,55.0,29.98,WSW,240,1.0,5.0,46,0.00,,,0.00,,2013-07-31 21:43:00,
2013-07-31 17:02:00,78.0,56.0,29.98,West,266,1.0,6.0,46,0.00,,,0.00,,2013-07-31 22:02:00,
2013-07-31 17:12:00,78.0,55.0,29.98,WNW,302,1.0,3.0,45,0.00,,,0.00,,2013-07-31 22:12:00,
2013-07-31 17:33:00,77.0,56.0,29.98,West,264,1.0,3.0,48,0.00,,,0.00,,2013-07-31 22:33:00,
2013-07-31 17:43:00,76.0,56.0,29.97,East,79,0.0,2.0,50,0.00,,,0.00,,2013-07-31 22:43:00,
2013-07-31 18:02:00,78.0,57.0,29.97,WSW,250,1.0,3.0,48,0.00,,,0.00,,2013-07-31 23:02:00,
2013-07-31 18:12:00,77.0,56.0,29.96,SSW,205,0.0,3.0,49,0.00,,,0.00,,2013-07-31 23:12:00,
2013-07-31 18:32:00,77.0,57.0,29.96,NE,48,1.0,9.0,50,0.00,,,0.00,,2013-07-31 23:32:00,
2013-07-31 18:42:00,76.0,56.0,29.96,SSW,200,1.0,9.0,50,0.00,,,0.00,,2013-07-31 23:42:00,
2013-07-31 19:12:00,75.0,57.0,29.97,West,273,0.0,3.0,54,0.00,,,0.00,,2013-08-01 00:12:00,
2013-07-31 19:32:00,75.0,58.0,29.97,SSW,199,0.0,3.0,56,0.00,,,0.00,,2013-08-01 00:32:00,
2013-07-31 19:43:00,75.0,56.0,29.97,South,185,0.0,3.0,52,0.00,,,0.00,,2013-08-01 00:43:00,
2013-07-31 19:52:00,74.0,56.0,29.97,NE,51,0.0,2.0,54,0.00,,,0.00,,2013-08-01 00:52:00,
2013-07-31 20:02:00,74.0,57.0,29.97,West,261,0.0,0.0,55,0.00,,,0.00,,2013-08-01 01:02:00,
2013-07-31 20:12:00,74.0,57.0,29.97,WSW,257,0.0,1.0,55,0.00,,,0.00,,2013-08-01 01:12:00,
2013-07-31 20:22:00,73.0,56.0,29.97,WSW,252,0.0,1.0,55,0.00,,,0.00,,2013-08-01 01:22:00,
2013-07-31 20:33:00,73.0,57.0,29.97,WSW,252,0.0,2.0,58,0.00,,,0.00,,2013-08-01 01:33:00,
2013-07-31 20:43:00,73.0,57.0,29.97,WSW,252,0.0,2.0,58,0.00,,,0.00,,2013-08-01 01:43:00,
2013-07-31 21:02:00,74.0,58.0,29.98,WSW,252,0.0,0.0,58,0.00,,,0.00,,2013-08-01 02:02:00,
2013-07-31 21:12:00,73.0,57.0,29.98,WSW,252,0.0,0.0,58,0.00,,,0.00,,2013-08-01 02:12:00,
2013-07-31 21:32:00,71.0,56.0,29.98,WSW,252,0.0,1.0,60,0.00,,,0.00,,2013-08-01 02:32:00,
2013-07-31 21:43:00,71.0,56.0,29.98,WSW,252,0.0,0.0,60,0.00,,,0.00,,2013-08-01 02:43:00,
2013-07-31 22:02:00,69.0,56.0,29.99,WSW,252,0.0,0.0,64,0.00,,,0.00,,2013-08-01 03:02:00,
2013-07-31 22:12:00,69.0,57.0,29.99,WSW,252,0.0,0.0,65,0.00,,,0.00,,2013-08-01 03:12:00,
2013-07-31 22:22:00,68.0,57.0,29.99,WSW,252,0.0,0.0,68,0.00,,,0.00,,2013-08-01 03:22:00,
2013-07-31 22:32:00,68.0,57.0,29.99,WSW,252,0.0,0.0,68,0.00,,,0.00,,2013-08-01 03:32:00,
2013-07-31 22:43:00,67.0,56.0,29.99,WSW,252,0.0,0.0,68,0.00,,,0.00,,2013-08-01 03:43:00,
2013-07-31 22:53:00,67.0,56.0,29.99,WSW,252,0.0,0.0,69,0.00,,,0.00,,2013-08-01 03:53:00,
2013-07-31 23:03:00,66.0,56.0,29.99,WSW,252,0.0,0.0,69,0.00,,,0.00,,2013-08-01 04:03:00,
2013-07-31 23:12:00,65.0,55.0,29.99,WSW,252,0.0,0.0,70,0.00,,,0.00,,2013-08-01 04:12:00,
2013-07-31 23:22:00,65.0,55.0,29.99,WSW,252,0.0,0.0,69,0.00,,,0.00,,2013-08-01 04:22:00,
2013-07-31 23:33:00,65.0,55.0,29.99,WSW,252,0.0,0.0,70,0.00,,,0.00,,2013-08-01 04:33:00,
2013-07-31 23:43:00,64.0,54.0,30.00,WSW,252,0.0,0.0,70,0.00,,,0.00,,2013-08-01 04:43:00,